Location: Peebles
(55.6412°N, 3.1714°W)
Time: 00:55:38
(UTC+01:00)

deb r/b Ablestar - Pass Details

Date: 05 July 2022
Orbit: 859 x 1154 km, 67.2° (Epoch: 13 August)

Event Time Altitude Azimuth Distance (km) Brightness Sun altitude
Rises 02:24:22 0° 318° (NW) 4,020 ? -10.3°
Reaches altitude 10° 02:27:17 10° 310° (NW) 3,065 ? -10.2°
Maximum altitude 02:33:49 36° 248° (WSW) 1,729 ? -9.9°
Enters shadow 02:40:06 11° 185° (S) 2,957 ? -9.6°
